[[{"header":{"parameterUnit":"m.s-1","parameterCategory":1,"la1":30.2991,"la2":30.254,"lo1":-89.0895,"lo2":-89.0444,"dy":0.0017,"dx":0.0017,"nx":28,"ny":28,"refTime":"2025-06-04T03:00:00:Z","depth":0,"parameterNumber":2,"parameterNumberName":"U-component_of_WINDS"},"data":[0,0,0,0,0,0,0,0,0,0,0,0,0,0,0,0,0,0,0,0,0,0,0,0,0,0,0,0,0,0,0,0,0,0,0,0,0,0,0,0,0,0,0,0,0,0,0,0,0,0,0,0,0,0,0,0,0,0,1.4511,1.451,0,1.444,1.4439,1.4439,1.431,1.4307,1.4305,1.4302,1.4233,1.4234,1.4234,0,0,0,0,0,0,0,0,0,0,0,0,0,1.4538,1.4538,1.4511,1.451,1.4509,1.444,1.4439,1.4438,1.431,1.4307,1.4304,1.4301,1.4233,1.4234,1.4234,0,0,0,0,0,0,0,0,0,0,0,0,0,1.4503,1.4538,1.4511,1.4437,1.4429,1.4441,1.4439,1.4438,1.4311,1.4307,1.4303,1.43,1.4233,1.4234,1.4234,1.4313,0,0,1.4237,1.4237,0,0,0,0,0,0,0,0,1.4505,1.4502,1.4448,1.4442,1.4434,1.438,1.4423,1.4396,1.4312,1.4356,1.4302,1.4298,1.4285,1.4282,1.4277,1.431,1.4307,1.4237,1.4237,1.4237,1.4238,0,0,0,0,0,0,0,1.4507,1.4504,1.4483,1.4448,1.4439,1.4408,1.4399,1.4418,1.4343,1.4352,1.4342,1.4336,1.4281,1.4276,1.4274,1.4306,1.4237,1.4237,1.4238,1.4238,1.44,1.4404,0,0,0,0,0,0,1.452,1.4507,1.4485,1.4481,1.4461,1.4411,1.44,1.4401,1.4342,1.4329,1.4339,1.433,1.4277,1.4273,1.4271,1.4358,1.4237,1.4238,1.4238,1.4397,1.4401,1.4405,0,0,0,0,0,0,1.4521,1.452,1.4488,1.4491,1.4485,1.4414,1.4416,1.4402,1.4397,1.4332,1.4318,1.4348,1.4274,1.427,1.4303,1.4354,1.4238,1.4239,1.4392,1.4398,1.4403,1.4535,0,0,0,0,0,0,1.4523,1.4521,1.4549,1.4493,1.4485,1.4521,1.4419,1.4403,1.4398,1.4386,1.4337,1.4325,1.4271,1.4303,1.4304,1.4353,1.424,1.4387,1.4395,1.4401,1.4526,1.4545,1.4561,0,0,0,0,0,1.4524,1.459,1.4551,1.4549,1.4519,1.4524,1.452,1.4454,1.4403,1.4431,1.4389,1.4327,1.4349,1.4308,1.4308,1.4358,1.4383,1.4392,1.4401,1.4518,1.4541,1.456,0,0,0,0,0,0,1.4655,1.4581,1.4537,1.4586,1.4563,1.4502,1.4536,1.4481,1.4472,1.4461,1.4381,1.4372,1.4415,1.439,1.4345,1.4431,1.4356,1.4366,1.4445,1.4467,1.4484,1.4488,1.424,0,0,0,0,0,1.4689,1.4698,1.4634,1.4684,1.4674,1.4608,1.4607,1.4559,1.4531,1.4521,1.4481,1.4458,1.4459,1.4462,1.446,1.4522,1.4509,1.4557,1.4574,1.4589,1.4597,1.4628,1.4648,1.4434,1.4434,1.4434,0,0,1.476,1.4721,1.4732,1.4709,1.4684,1.4696,1.46,1.4617,1.4625,1.4523,1.4552,1.4523,1.4491,1.4539,1.4559,1.452,1.4654,1.46,1.4612,1.4613,1.4639,1.4659,1.4677,1.444,1.4439,1.4438,0,0,1.4896,1.4868,1.4905,1.4883,1.4847,1.4803,1.4812,1.476,1.4737,1.4764,1.4688,1.4698,1.4702,1.4682,1.4673,1.4803,1.4744,1.4805,1.4895,1.4926,1.4943,1.4957,1.5003,1.502,1.4814,1.4814,1.4814,0,1.4989,1.5003,1.4932,1.4953,1.4946,1.4854,1.4892,1.4874,1.4841,1.4838,1.4794,1.4798,1.477,1.4812,1.4844,1.484,1.4848,1.4809,1.4946,1.496,1.4972,1.5015,1.5032,1.4821,1.482,1.482,1.4819,0,1.5119,1.513,1.5165,1.5133,1.513,1.516,1.5094,1.51,1.5053,1.5013,1.5042,1.5006,1.4995,1.5002,1.4957,1.5038,1.5014,1.496,1.4883,1.5001,1.504,1.5055,1.4832,1.4829,1.4827,1.4825,0,0,1.5332,1.5262,1.5276,1.526,1.5214,1.5222,1.5249,1.5237,1.5242,1.5223,1.5243,1.5249,1.5198,1.5188,1.514,1.5167,1.5271,1.5109,1.5107,1.5139,1.5357,1.5397,1.5417,1.5233,1.5236,1.5238,1.536,0,1.5457,1.5496,1.5434,1.5488,1.5497,1.5411,1.5434,1.541,1.5374,1.5378,1.5339,1.5344,1.5278,1.5271,1.5294,1.5254,1.5314,1.5244,1.5251,1.5252,1.5259,1.5437,1.5479,1.5595,1.5374,1.5377,1.5379,0,1.5606,1.5592,1.5647,1.5598,1.56,1.5622,1.5606,1.5611,1.5581,1.5553,1.5543,1.5486,1.5509,1.5436,1.5467,1.5422,1.5421,1.5402,1.5405,1.5401,1.5321,1.5437,1.5631,1.5648,1.5402,1.54,1.5398,0,1.5754,1.5751,1.5782,1.5772,1.5716,1.5733,1.5711,1.5678,1.5675,1.5662,1.5659,1.565,1.5644,1.5639,1.5581,1.5534,1.5619,1.5542,1.5596,1.5598,1.5616,1.5616,1.5811,1.562,1.5619,1.5619,1.5619,0,1.5898,1.5935,1.5848,1.5868,1.5906,1.5836,1.5877,1.5846,1.5817,1.583,1.5757,1.577,1.5694,1.57,1.5655,1.5687,1.5686,1.5664,1.5652,1.567,1.5672,1.5667,1.5656,1.5624,1.5623,1.5622,1.5621,0,1.6069,1.6013,1.6041,1.5987,1.5974,1.6005,1.5958,1.5975,1.5935,1.5952,1.5952,1.5891,1.5894,1.5836,1.5828,1.5798,1.585,1.5824,1.5859,1.585,1.5907,1.5902,1.6104,1.6127,1.5924,1.5926,1.5927,0,1.6163,1.6189,1.6137,1.614,1.6121,1.6127,1.6123,1.6056,1.6055,1.6024,1.6045,1.6042,1.6035,1.6045,1.5999,1.5993,1.5965,1.6037,1.5964,1.5981,1.5964,1.5963,1.5965,1.6051,1.6054,1.6056,1.6058,0,1.6336,1.6307,1.6304,1.6292,1.629,1.6277,1.626,1.6267,1.6193,1.6197,1.6198,1.6194,1.6185,1.6183,1.6169,1.6146,1.609,1.6082,1.6093,1.6111,1.613,1.6119,1.5899,1.6077,1.6075,1.6073,1.6072,1.6071,1.647,1.6489,1.6455,1.6455,1.6435,1.6421,1.6433,1.6395,1.6395,1.6382,1.6343,1.6352,1.6323,1.6297,1.628,1.6287,1.6251,1.6269,1.6273,1.6278,1.6288,1.6131,1.6284,1.6283,1.6283,1.6282,1.6282,0,1.6637,1.6612,1.6612,1.659,1.659,1.6538,1.6516,1.652,1.6528,1.6505,1.6501,1.6503,1.6501,1.6457,1.6449,1.6463,1.6437,1.6463,1.646,1.6456,1.6321,1.631,1.6484,1.6484,1.6484,1.6484,1.6484,1.6484,1.6724,1.6753,1.6721,1.674,1.6714,1.6721,1.6713,1.67,1.6682,1.6687,1.6685,1.6656,1.6625,1.6615,1.6611,1.6598,1.6598,1.6633,1.6611,1.6485,1.6466,1.6447,1.6436,1.6634,1.6634,1.6745,1.6746,1.6747]},{"header":{"parameterUnit":"m.s-1","parameterCategory":1,"la1":30.2991,"la2":30.254,"lo1":-89.0895,"lo2":-89.0444,"dy":0.0017,"dx":0.0017,"nx":28,"ny":28,"refTime":"2025-06-04T03:00:00:Z","depth":0,"parameterNumber":3,"parameterNumberName":"V-component_of_WINDS"},"data":[0,0,0,0,0,0,0,0,0,0,0,0,0,0,0,0,0,0,0,0,0,0,0,0,0,0,0,0,0,0,0,0,0,0,0,0,0,0,0,0,0,0,0,0,0,0,0,0,0,0,0,0,0,0,0,0,0,0,0.3942,0.3944,0,0.4125,0.4127,0.413,0.4173,0.4172,0.417,0.4169,0.4362,0.4368,0.4374,0,0,0,0,0,0,0,0,0,0,0,0,0,0.3632,0.3638,0.3942,0.3944,0.3946,0.4125,0.4128,0.413,0.4173,0.4171,0.417,0.4169,0.436,0.4367,0.4375,0,0,0,0,0,0,0,0,0,0,0,0,0,0.3786,0.364,0.3941,0.3989,0.3995,0.4125,0.4128,0.4131,0.4173,0.4171,0.417,0.4168,0.4357,0.4367,0.4376,0.4472,0,0,0.4405,0.4409,0,0,0,0,0,0,0,0,0.3778,0.3798,0.398,0.3986,0.3993,0.4124,0.4089,0.4245,0.4174,0.4106,0.4169,0.4167,0.4285,0.43,0.4339,0.4481,0.4489,0.4406,0.4411,0.4415,0.4418,0,0,0,0,0,0,0,0.3767,0.379,0.4015,0.3983,0.3991,0.4003,0.4022,0.4119,0.4204,0.4112,0.4115,0.4136,0.4288,0.4329,0.4344,0.4492,0.4405,0.4414,0.442,0.4423,0.4722,0.4724,0,0,0,0,0,0,0.3747,0.3781,0.4009,0.402,0.3878,0.401,0.4032,0.4084,0.4203,0.4219,0.4137,0.4137,0.4314,0.4332,0.4351,0.4471,0.4415,0.4424,0.443,0.472,0.4723,0.4725,0,0,0,0,0,0,0.374,0.3767,0.4001,0.3902,0.3932,0.4017,0.4075,0.4089,0.413,0.4222,0.4238,0.4164,0.4313,0.4337,0.4441,0.4478,0.4429,0.4437,0.4717,0.4721,0.4724,0.4713,0,0,0,0,0,0,0.3731,0.3764,0.3801,0.3902,0.3937,0.4088,0.4078,0.4094,0.4146,0.4148,0.4251,0.4267,0.4314,0.4427,0.445,0.449,0.4445,0.4714,0.4719,0.4723,0.471,0.4715,0.4719,0,0,0,0,0,0.372,0.3792,0.3803,0.383,0.3985,0.409,0.411,0.4162,0.4149,0.4187,0.4246,0.4264,0.447,0.4437,0.4464,0.4507,0.4712,0.4717,0.4722,0.4708,0.4714,0.4719,0,0,0,0,0,0,0.3696,0.3806,0.382,0.3926,0.3998,0.4097,0.4147,0.4167,0.4245,0.4244,0.4305,0.4328,0.4428,0.4478,0.444,0.4606,0.4591,0.4602,0.457,0.4577,0.4582,0.4569,0.4452,0,0,0,0,0,0.3703,0.3777,0.387,0.3955,0.399,0.4062,0.411,0.4142,0.422,0.4252,0.4318,0.4394,0.4476,0.4529,0.461,0.4716,0.474,0.476,0.4764,0.4768,0.4777,0.4837,0.4847,0.4742,0.4742,0.4742,0,0,0.3718,0.3787,0.3831,0.3952,0.4012,0.4089,0.4088,0.417,0.4228,0.4265,0.4367,0.4418,0.4507,0.4612,0.4662,0.4657,0.4811,0.4774,0.4776,0.4784,0.4843,0.4853,0.4862,0.4745,0.4745,0.4744,0,0,0.3786,0.3845,0.3922,0.3981,0.4071,0.4118,0.4136,0.4231,0.4266,0.4369,0.4398,0.4468,0.4608,0.467,0.472,0.4808,0.4827,0.4832,0.4858,0.4916,0.4924,0.4932,0.4964,0.4975,0.4841,0.4841,0.4841,0,0.3795,0.3911,0.396,0.404,0.4092,0.4126,0.4205,0.4261,0.4373,0.4408,0.44,0.4575,0.4638,0.4758,0.4779,0.4818,0.4842,0.4822,0.4918,0.4927,0.4935,0.4966,0.4978,0.4841,0.4841,0.4841,0.4841,0,0.3917,0.3997,0.4048,0.4153,0.4211,0.429,0.4352,0.4405,0.4432,0.4479,0.4583,0.4658,0.4755,0.4785,0.4813,0.491,0.4903,0.4906,0.4892,0.4944,0.4975,0.4987,0.4841,0.4841,0.4841,0.4841,0,0,0.3978,0.4106,0.4125,0.4172,0.4272,0.4335,0.4415,0.4507,0.4552,0.4627,0.4696,0.4812,0.4815,0.4871,0.4906,0.4956,0.5022,0.4953,0.4956,0.4964,0.5133,0.5132,0.5145,0.5034,0.5036,0.5038,0.5126,0,0.4059,0.4202,0.4248,0.4368,0.4442,0.4474,0.4544,0.4613,0.466,0.473,0.4782,0.4863,0.486,0.4894,0.4945,0.5003,0.5057,0.4997,0.5101,0.5104,0.508,0.5161,0.516,0.5239,0.5138,0.514,0.5142,0,0.4174,0.4248,0.4375,0.4463,0.4497,0.4558,0.4646,0.4712,0.4791,0.4821,0.4882,0.4913,0.4999,0.4977,0.5097,0.5055,0.51,0.5135,0.5139,0.5153,0.5128,0.5178,0.5266,0.5278,0.5161,0.5159,0.5158,0,0.4207,0.4339,0.4431,0.4471,0.4576,0.4619,0.4665,0.4742,0.4794,0.487,0.4904,0.499,0.5038,0.5104,0.5156,0.5136,0.5272,0.5255,0.53,0.5299,0.533,0.5328,0.5428,0.5355,0.5355,0.5355,0.5355,0,0.4294,0.437,0.4447,0.4505,0.4591,0.4642,0.4727,0.4776,0.4843,0.4911,0.4944,0.5007,0.5072,0.5144,0.5185,0.5279,0.53,0.5327,0.5338,0.5326,0.5322,0.5358,0.5354,0.5358,0.5357,0.5357,0.5356,0,0.4347,0.4401,0.4504,0.4594,0.4619,0.4679,0.4757,0.4814,0.486,0.4945,0.4968,0.5041,0.5127,0.5185,0.5297,0.5325,0.5426,0.5435,0.5399,0.5405,0.5447,0.5443,0.5575,0.5596,0.5508,0.5508,0.5509,0,0.44,0.4459,0.4554,0.4601,0.4647,0.4722,0.4774,0.4826,0.4879,0.4972,0.5018,0.5106,0.5179,0.5316,0.538,0.5464,0.5477,0.5517,0.549,0.5475,0.5479,0.5476,0.5482,0.5522,0.5523,0.5523,0.5524,0,0.4489,0.4512,0.4585,0.4666,0.4727,0.4795,0.4862,0.4899,0.4963,0.5021,0.5108,0.5165,0.5277,0.5364,0.5454,0.5503,0.5525,0.5531,0.5546,0.5536,0.5513,0.5527,0.5413,0.5529,0.5528,0.5528,0.5527,0.5527,0.4545,0.4599,0.4673,0.4753,0.4809,0.4871,0.4929,0.498,0.5053,0.5147,0.5173,0.5264,0.5341,0.5464,0.5514,0.5587,0.5583,0.5605,0.5611,0.5616,0.5617,0.5499,0.5603,0.5603,0.5603,0.5603,0.5603,0,0.4637,0.4685,0.4758,0.485,0.4913,0.4924,0.4999,0.5051,0.513,0.5198,0.5269,0.5369,0.5453,0.5521,0.5608,0.5653,0.5665,0.5675,0.5673,0.5684,0.5614,0.5593,0.5663,0.5663,0.5663,0.5663,0.5663,0.5663,0.4692,0.4783,0.4815,0.4934,0.4983,0.5071,0.5113,0.517,0.5225,0.5334,0.5403,0.5446,0.5515,0.5607,0.5684,0.5703,0.5734,0.5741,0.5762,0.5696,0.5689,0.5683,0.5663,0.5747,0.5747,0.5826,0.5827,0.5827]}]]